Location: Derby
(52.9213°N, 1.4761°W)
Time: 15:51:16
(UTC+01:00)

Vanguard 1 - Pass Details

Date: 28 May 2025
Orbit: 649 x 3822 km, 34.3° (Epoch: 14 June)

Event Time Altitude Azimuth Distance (km) Brightness Sun altitude
Rises 16:04:42 0° 226° (SW) 7,935 15.4 43.4°
Reaches altitude 10° 16:10:57 10° 219° (SW) 6,909 15.3 42.6°
Maximum altitude 16:29:37 35° 165° (SSE) 4,431 13.8 39.9°
Drops below altitude 10° 16:43:01 10° 107° (ESE) 5,024 13.4 38.0°
Sets 16:46:39 0° 99° (E) 5,635 13.5 37.5°
